Observations for Trim Patrick St
| Time | AQI | Temp °C | Hum % | Pres Pa | CO μg/m³ | H₂S μg/m³ | NO μg/m³ | NO₂ μg/m³ | O₃ μg/m³ | SO₂ μg/m³ | PM1 μg/m³ | PM2.5 μg/m³ | PM10 μg/m³ |
|---|---|---|---|---|---|---|---|---|---|---|---|---|---|
| Thursday 27 August 2026 | |||||||||||||
| 09:24 | 2 | 20.1 | 78 | 38,460 | 0.09 | 0 | 1.09 | 12.29 | 29.19 | 1.06 | 22.57 | 31.35 | 34 |
| 09:23 | 2 | 20.1 | 79 | 38,460 | 0.09 | 0 | 0.81 | 10.9 | 26.45 | 1.25 | 20.86 | 30.62 | 33.23 |
| 09:22 | 2 | 20.1 | 78 | 38,460 | 0.11 | 0 | 0.92 | 10.66 | 36.87 | 0.5 | 23.43 | 32.74 | 36.07 |
| 09:21 | 2 | 20.1 | 79 | 38,460 | 0.11 | 0 | 1.1 | 9.48 | 34.16 | 1.32 | 20.86 | 30.61 | 31.79 |
| 09:20 | 2 | 20.1 | 79 | 38,460 | 0.11 | 0 | 0.91 | 8.05 | 40.67 | 1.78 | 20 | 27.07 | 29.77 |
| 09:19 | 2 | 20 | 79 | 38,460 | 0.11 | 0 | 0.84 | 8.01 | 38.14 | 1.57 | 21.72 | 31.98 | 34.53 |
| 09:18 | 2 | 20 | 79 | 38,460 | 0.12 | 0 | 1.06 | 7.7 | 39.23 | 1.13 | 18.29 | 27.08 | 29.79 |
| 09:17 | 2 | 20 | 79 | 38,460 | 0.12 | 0 | 1.19 | 11.45 | 37.14 | 0.18 | 23.43 | 33.43 | 35.34 |
| 09:16 | 2 | 20 | 79 | 38,460 | 0.12 | 0 | 0.82 | 9.68 | 31.54 | 1.01 | 20.86 | 30.58 | 31.73 |
| 09:15 | 2 | 20 | 79 | 38,460 | 0.13 | 0 | 1.09 | 10.12 | 32.28 | 0.69 | 21.72 | 31.28 | 31.73 |
| 09:14 | 2 | 20 | 79 | 38,460 | 0.14 | 0 | 1.15 | 7.54 | 44.84 | 1.21 | 22.57 | 31.97 | 34.5 |
| 09:13 | 2 | 20 | 79 | 38,460 | 0.14 | 0 | 1.07 | 8.27 | 33.81 | 0.73 | 21.72 | 30.55 | 32.37 |
| 09:12 | 2 | 20 | 79 | 38,460 | 0.12 | 0 | 0.94 | 11.16 | 30.15 | 0.71 | 24.29 | 34.09 | 39.43 |
| 09:11 | 2 | 20 | 79 | 38,460 | 0.12 | 0 | 1.16 | 9.08 | 39.96 | 0.28 | 21.72 | 29.13 | 32.34 |
| 09:10 | 2 | 20 | 79 | 38,460 | 0.12 | 0 | 1.31 | 11.87 | 33.25 | 0.26 | 20 | 29.85 | 30.97 |
| 09:09 | 2 | 20 | 79 | 38,460 | 0.14 | 0 | 1.78 | 13.06 | 32.58 | 0 | 24.29 | 34.03 | 36.49 |
| 09:08 | 2 | 19.9 | 80 | 38,460 | 0.15 | 0 | 1.98 | 11.12 | 36.95 | 0 | 22.57 | 33.28 | 35.68 |
| 09:07 | 2 | 19.9 | 80 | 38,460 | 0.19 | 0 | 1.95 | 12.02 | 34.58 | 0.53 | 23.43 | 31.82 | 33.46 |
| 09:06 | 2 | 19.9 | 80 | 38,460 | 0.16 | 0 | 1.7 | 13.67 | 33.99 | 0.17 | 23.43 | 32.51 | 35.5 |
| 09:05 | 2 | 19.8 | 80 | 38,460 | 0.17 | 0 | 1.43 | 12.65 | 24.54 | 0.61 | 21.72 | 31.78 | 34.05 |